Location: Diebersbach
(48.5163°N, 8.0558°E)
Time: 19:35:35
(UTC+00:00)

Cosmos 1825 - Pass Details

Date: 31 October 2021
Orbit: 501 x 504 km, 82.5° (Epoch: 01 December)

Event Time Altitude Azimuth Distance (km) Brightness Sun altitude
Rises 18:52:56 0° 333° (NNW) 2,610 6.3 -27.4°
Reaches altitude 10° 18:55:47 10° 309° (NW) 1,720 5.6 -27.9°
Maximum altitude 18:57:56 15° 275° (W) 1,441 5.3 -28.3°
Drops below altitude 10° 19:00:04 10° 240° (WSW) 1,713 5.4 -28.6°
Sets 19:02:54 0° 216° (SW) 2,591 6.1 -29.1°
